Flag for U.S.A. Weather past 2 weeks in Bloomington, Illinois, U.S.A.

Now
69 °F

Passing clouds.


Feels Like: 69 °F
Forecast: 47 / 69 °F
Wind: 7 mph from Southwest

Location: Bloomington / Normal

Current Time: May 30, 2015 at 1:50:24 AM

Latest Report: May 30, 2015 at 12:56 AM


Visibility: 10 mi

Pressure: 29.95 "Hg

Humidity: 97%

Dew point: 68 °F

Location of BloomingtonLocation

Historic Weather in Bloomington — Graph

°F

Bloomington temperature yesterday

Maximum temperature yesterday: 84 °F (at 3:56 PM)
Minimum temperature yesterday: 66 °F (at 3:56 AM)
Average temperature yesterday: 72 °F

Past Weeks' High & Low Weather Summary

 TemperatureHumidityPressure
High85 °F (May 24, 3:56 PM)100% (May 15, 10:56 PM)30.32 "Hg (May 15, 10:56 PM)
Low42 °F (May 20, 9:56 PM)24% (May 22, 4:56 PM)29.80 "Hg (May 26, 2:56 PM)
Average67 °F71%30.06 "Hg
* Reported May 15 12:56 AM — May 30 12:56 AM, Bloomington, Weather by CustomWeather, © 2015

Note: Actual official high and low records may vary slightly from our data, if they occured in-between our weather recording intervals... More about our weather records

Advertising

Bloomington weather history for previous 24 hours

 ConditionsComfort  
Time TempWeatherWind HumidityBarometerVisibility
12:56 AM
Sat, May 30
69 °FPassing clouds.7 mph97%29.95 "Hg10 mi
11:56 PM
Fri, May 29
69 °FPassing clouds.10 mph97%29.97 "Hg10 mi
10:56 PM69 °FClear.9 mph93%29.97 "Hg10 mi
9:56 PM68 °FClear.8 mph93%29.97 "Hg10 mi
8:56 PM68 °FSunny.8 mph93%29.96 "Hg10 mi
7:56 PM69 °FPartly sunny.9 mph97%29.96 "Hg10 mi
6:56 PM69 °FThundershowers. Fog.10 mph97%29.96 "Hg6 mi
5:56 PM72 °FThundershowers. Broken clouds.10 mph84%29.94 "Hg10 mi
4:56 PM75 °FLight rain. Partly sunny.10 mph88%29.93 "Hg7 mi
3:56 PM84 °FBroken clouds.23 mph59%29.93 "Hg10 mi
2:56 PM82 °FBroken clouds.17 mph63%29.94 "Hg10 mi
1:56 PM82 °FPartly sunny.18 mph63%29.96 "Hg10 mi
12:56 PM81 °FPartly sunny.20 mph67%29.98 "Hg10 mi
11:56 AM78 °FPassing clouds.15 mph74%30.00 "Hg10 mi
10:56 AM78 °FSunny.15 mph74%30.01 "Hg10 mi
9:56 AM74 °FBroken clouds.16 mph84%30.03 "Hg10 mi
8:56 AM71 °FSprinkles. Broken clouds.13 mph91%30.03 "Hg7 mi
7:56 AM72 °FBroken clouds.13 mph84%30.02 "Hg10 mi
6:56 AM68 °FFog.9 mph93%30.01 "Hg6 mi
5:56 AM67 °FFog.10 mph93%30.01 "Hg3 mi
4:56 AM66 °FFog.10 mph97%29.99 "Hg5 mi
3:56 AM66 °FFog.6 mph94%30.02 "Hg6 mi
2:56 AM67 °FClear.7 mph93%30.02 "Hg10 mi
1:56 AM69 °FClear.10 mph87%30.01 "Hg10 mi
Weather by CustomWeather, © 2015

See weather overviewHow to use our weather pages